Weather reports worldwide

Advertisment
Santon Downham, United Kingdom (99118): temperature & dewpoint: 29.07.2020 00:00:00 - 04.08.2020 00:00:00 (BST)Santon Downham, United Kingdom (99118): temperature -20cm & temperature -100cm: 29.07.2020 00:00:00 - 04.08.2020 00:00:00 (BST)Santon Downham, United Kingdom (99118): precipitation: 29.07.2020 00:00:00 - 04.08.2020 00:00:00 (BST)
Date & Time tt [°C] td [°C] tt -20cm [°C] tt -100cm [°C] rr [mm]
04.08.2020 00:00:00 7,8 7,5 - - 0,2
03.08.2020 23:00:00 8,9 8,4 - - 0,0
03.08.2020 22:00:00 10,3 9,7 - - 0,0
03.08.2020 21:00:00 12,3 11,3 - - 0,0
03.08.2020 20:00:00 14,5 12,3 - - 0,0
03.08.2020 19:00:00 15,1 13,0 - - 0,8
03.08.2020 18:00:00 14,0 13,0 - - 1,0
03.08.2020 17:00:00 15,2 10,9 - - 0,0
03.08.2020 16:00:00 18,0 9,2 - - 0,0
03.08.2020 15:00:00 16,5 10,9 - - 0,2
03.08.2020 14:00:00 18,1 8,9 - - 0,0
03.08.2020 13:00:00 19,2 8,3 - - 0,0
03.08.2020 12:00:00 18,8 8,7 - - 0,0
03.08.2020 11:00:00 18,4 10,7 - - 0,0
03.08.2020 10:00:00 17,1 11,1 18,7 17,2 0,0
03.08.2020 09:00:00 15,3 10,9 - - 0,0
03.08.2020 08:00:00 13,8 12,2 - - 0,0
03.08.2020 07:00:00 10,3 10,2 - - 0,0
03.08.2020 06:00:00 9,2 8,9 - - 0,2
03.08.2020 05:00:00 10,4 10,1 - - 0,0
03.08.2020 04:00:00 11,2 10,8 - - 0,0
03.08.2020 03:00:00 11,7 11,1 - - 0,0
03.08.2020 02:00:00 13,1 12,1 - - 0,0
03.08.2020 01:00:00 13,5 13,4 - - 0,4
03.08.2020 00:00:00 13,0 12,7 - - 0,0
02.08.2020 23:00:00 13,2 12,6 - - 0,0
02.08.2020 22:00:00 14,5 13,7 - - 1,6
02.08.2020 21:00:00 15,1 13,8 - - 0,4
02.08.2020 20:00:00 17,9 13,6 - - 0,4
02.08.2020 19:00:00 20,9 9,4 - - 0,0
02.08.2020 18:00:00 22,0 7,6 - - 0,0
02.08.2020 17:00:00 23,6 8,7 - - 0,0
02.08.2020 16:00:00 23,6 10,2 - - 0,0
02.08.2020 15:00:00 22,1 9,1 - - 0,0
02.08.2020 14:00:00 20,9 10,5 - - 0,0
02.08.2020 13:00:00 20,9 10,3 - - 0,0
02.08.2020 12:00:00 20,0 9,5 - - 0,0
02.08.2020 11:00:00 20,1 11,5 - - 0,0
02.08.2020 10:00:00 18,5 11,5 19,0 17,2 0,0
02.08.2020 09:00:00 16,2 10,7 - - 0,0
02.08.2020 08:00:00 14,1 10,4 - - 0,0
02.08.2020 07:00:00 12,0 10,7 - - 0,0
02.08.2020 06:00:00 11,1 10,0 - - 0,0
02.08.2020 05:00:00 11,9 11,4 - - 0,0
02.08.2020 04:00:00 12,3 11,8 - - 0,0
02.08.2020 03:00:00 12,9 11,6 - - 0,0
02.08.2020 02:00:00 15,4 12,6 - - 0,0
02.08.2020 01:00:00 16,0 13,7 - - 0,0
02.08.2020 00:00:00 16,2 13,7 - - 0,0
01.08.2020 23:00:00 17,2 13,9 - - 0,6
01.08.2020 22:00:00 18,5 13,0 - - 0,0
01.08.2020 21:00:00 19,9 13,2 - - 0,0
01.08.2020 20:00:00 23,3 12,6 - - 0,0
01.08.2020 19:00:00 23,9 12,4 - - 0,0
01.08.2020 18:00:00 24,2 11,8 - - 0,0
01.08.2020 17:00:00 25,0 12,4 - - 0,0
01.08.2020 16:00:00 24,2 13,1 - - 0,0
01.08.2020 15:00:00 24,4 13,4 - - 0,0
01.08.2020 14:00:00 23,2 13,4 - - 0,0
01.08.2020 13:00:00 22,6 13,7 - - 0,0
01.08.2020 12:00:00 22,3 13,0 - - 0,0
01.08.2020 11:00:00 22,0 12,6 - - 0,0
01.08.2020 10:00:00 21,1 13,0 19,2 17,0 0,0
01.08.2020 09:00:00 20,2 14,0 - - 0,0
01.08.2020 08:00:00 18,4 14,3 - - 0,0
01.08.2020 07:00:00 17,7 13,5 - - 0,0
01.08.2020 06:00:00 18,0 12,6 - - 0,0
01.08.2020 05:00:00 19,9 17,4 - - 0,0
01.08.2020 04:00:00 18,9 16,5 - - 0,0
01.08.2020 03:00:00 18,8 15,9 - - 0,0
01.08.2020 02:00:00 18,7 15,4 - - 0,0
01.08.2020 01:00:00 21,4 15,2 - - 0,0
01.08.2020 00:00:00 23,5 15,0 - - 0,0
31.07.2020 23:00:00 25,6 16,3 - - 0,0
31.07.2020 22:00:00 26,7 15,4 - - 0,0
31.07.2020 21:00:00 27,7 13,9 - - 0,0
31.07.2020 20:00:00 29,2 12,9 - - 0,0
31.07.2020 19:00:00 30,9 12,1 - - 0,0
31.07.2020 18:00:00 31,6 12,8 - - 0,0
31.07.2020 17:00:00 31,7 12,2 - - 0,0
31.07.2020 16:00:00 32,3 11,0 - - 0,0
31.07.2020 15:00:00 32,3 8,8 - - 0,0
31.07.2020 14:00:00 32,4 8,5 - - 0,0
31.07.2020 13:00:00 31,7 9,7 - - 0,0
31.07.2020 12:00:00 29,9 10,5 - - 0,0
31.07.2020 11:00:00 28,9 11,2 - - 0,0
31.07.2020 10:00:00 26,9 14,5 18,4 16,9 0,0
31.07.2020 09:00:00 23,9 13,8 - - 0,0
31.07.2020 08:00:00 20,0 15,6 - - 0,0
31.07.2020 07:00:00 14,3 14,3 - - 0,0
31.07.2020 06:00:00 11,8 11,4 - - 0,0
31.07.2020 05:00:00 12,2 11,7 - - 0,0
31.07.2020 04:00:00 11,8 11,1 - - 0,0
31.07.2020 03:00:00 12,1 11,1 - - 0,0
31.07.2020 02:00:00 13,3 11,2 - - 0,0
31.07.2020 01:00:00 14,0 10,9 - - 0,0
31.07.2020 00:00:00 15,6 9,6 - - 0,0
30.07.2020 23:00:00 16,9 9,3 - - 0,0
30.07.2020 22:00:00 18,3 10,7 - - 0,0
30.07.2020 21:00:00 21,7 10,2 - - 0,0
30.07.2020 20:00:00 24,1 10,9 - - 0,0
30.07.2020 19:00:00 25,7 10,9 - - 0,0
30.07.2020 18:00:00 27,2 12,0 - - 0,0
30.07.2020 17:00:00 27,7 10,6 - - 0,0
30.07.2020 16:00:00 27,8 11,6 - - 0,0
30.07.2020 15:00:00 27,3 12,2 - - 0,0
30.07.2020 14:00:00 26,9 11,8 - - 0,0
30.07.2020 13:00:00 25,7 12,1 - - 0,0
30.07.2020 12:00:00 24,9 11,4 - - 0,0
30.07.2020 11:00:00 23,2 10,8 - - 0,0
30.07.2020 10:00:00 21,8 11,7 18,0 16,9 0,0
30.07.2020 09:00:00 19,5 13,6 - - 0,0
30.07.2020 08:00:00 15,7 15,3 - - 0,0
30.07.2020 07:00:00 11,9 11,8 - - 0,0
30.07.2020 06:00:00 10,1 9,7 - - 0,0
30.07.2020 05:00:00 10,8 10,3 - - 0,0
30.07.2020 04:00:00 11,3 10,5 - - 0,0
30.07.2020 03:00:00 12,7 11,7 - - 0,0
30.07.2020 02:00:00 13,5 12,2 - - 0,0
30.07.2020 01:00:00 13,8 12,5 - - 0,0
30.07.2020 00:00:00 14,1 12,2 - - 0,0
29.07.2020 23:00:00 14,3 12,4 - - 0,0
29.07.2020 22:00:00 14,7 12,5 - - 0,0
29.07.2020 21:00:00 16,7 12,7 - - 0,0
29.07.2020 20:00:00 19,1 10,7 - - 0,0
29.07.2020 19:00:00 20,2 9,8 - - 0,0
29.07.2020 18:00:00 21,5 9,6 - - 0,0
29.07.2020 17:00:00 21,2 9,2 - - 0,0
29.07.2020 16:00:00 20,9 9,6 - - 0,0
29.07.2020 15:00:00 20,4 8,9 - - 0,0
29.07.2020 14:00:00 20,5 8,2 - - 0,0
29.07.2020 13:00:00 19,7 8,1 - - 0,0
29.07.2020 12:00:00 18,7 7,9 - - 0,0
29.07.2020 11:00:00 18,4 9,2 - - 0,0
29.07.2020 10:00:00 17,2 9,2 17,7 16,9 0,0
29.07.2020 09:00:00 16,4 10,5 - - 0,0
29.07.2020 08:00:00 13,3 9,8 - - 0,0
29.07.2020 07:00:00 11,4 10,3 - - 0,0
29.07.2020 06:00:00 9,6 9,5 - - 0,0
29.07.2020 05:00:00 6,9 6,8 - - 0,0
29.07.2020 04:00:00 6,4 6,2 - - 0,0
29.07.2020 03:00:00 6,1 5,8 - - 0,0
29.07.2020 02:00:00 6,8 6,2 - - 0,0
29.07.2020 01:00:00 7,9 7,1 - - 0,0
29.07.2020 00:00:00 9,1 7,6 - - 0,0

tt = temperature
td = dewpoint
tt -20cm = temperature -20cm
tt -100cm = temperature -100cm
rr = precipitation

Next stations